THOR ABLESTAR DEB, 645

Orbit data source: Space-Track

THOR ABLESTAR DEB, 645 is space debris in LEO originally from a launch on Thu, 29 Jun 1961 UTC launched from the Air Force Eastern Test Range (AFETR). Debris objects in space refer to the collection of defunct objects orbiting the Earth. Examples of debris include non-operational satellites, rocket bodies, and fragments generated from explosions, collisions, or faulty payload assembly.

Loading next visibility...
Identifier
645, 1961-015GW
Orbit
LEO
Country
Flag of USUS
Related business
Manufacturer
Unknown
Mission
Spacecraft
Bus & Motor
Unknown
Mass
Unknown
Launch date (UTC)
1961-06-29 (64 years ago)
Launch vehicle
Unknown
Launch site
Air Force Eastern Test Range (AFETR)
Object type
Payload
Rocket body
Debris
Shape & HBR
Unknown shape, 0.1 m
Radar Cross Section
Small (<0.1 m²)

Expand to show TLE details & history
Last TLE update: 5 hours ago

TLE from 5 hours ago
0 THOR ABLESTAR DEB
1 00645U 61015GW  25291.00115593  .00000536  00000-0  12268-2 0  9996
2 00645  66.5895  19.3559 0416591 267.7596 278.8536 13.04738169 48212
Epoch: 2025-10-18T00:01Z
TLE epoch observation values (Epoch: 2025-10-18T00:01:39.872Z)
Latitude
-1.8156°
Longitude
172.98371°
Altitude
1,209.967 km
Speed
7.266 km/s
True Right ascension
13h 20m 33s
True Declination
-1° 48' 19"
Sunlit
Object was in daylight at epoch
Visualization orbit readout
Latitude
Unknown
Longitude
Unknown
Altitude
Unknown
Speed
Unknown
Apparent Right ascension
Unknown
Apparent Declination
Unknown
Sunlit
N/A
Visualization observer readout
Local Sidereal Time
23:56:07
Azimuth
Unknown
Elevation
Unknown
Doppler factor
Unknown
Orbital elements
Apogee altitude
1,559.513 km
Perigee altitude
924.611 km
Semi-major axis
7,620.199 km
Eccentricity
0.04166
Inclination
66.5895°
RAAN
19.3559°
Arg. of periapsis
267.7596°
True anomaly
274.10405°
Mean anomaly
278.8536°
Eccentric anomaly
276.48197°
Mean motion
3.26282 °/min
Orbital period
110.33 mins
BSTAR
0.0012268

Documentation

Showing up to 5 results
|